Location: Cran-Gévrier
(45.9039°N, 6.1012°E)
Time: 10:56:00
(UTC+00:00)

SL-4 R/B - Pass Details

Date: 09 February 2023
Orbit: 423 x 637 km, 51.6° (Epoch: 31 March)

Event Time Altitude Azimuth Distance (km) Brightness Sun altitude
Rises 19:06:01 0° 292° (WNW) 2,447 6.6 -23.6°
Reaches altitude 10° 19:08:18 10° 279° (W) 1,601 5.5 -24.0°
Maximum altitude 19:11:21 26° 221° (SW) 958 3.5 -24.5°
Enters shadow 19:11:47 26° 208° (SSW) 979 3.5 -24.6°
